Weather History for KMRB - February, 2015

Change the Weather History Date:

Saturday, February 14, 2015

  Actual Average Record
Temperature  
Mean Temperature 26 °F 34 °F  
Max Temperature 39 °F 43 °F 67 °F (1949)
Min Temperature 12 °F 24 °F 4 °F (1986)
Degree Days  
Heating Degree Days 39 32  
Month to date heating degree days 464 456  
Since 1 July heating degree days 3302 3539  
Cooling Degree Days 0 0  
Month to date cooling degree days 0 0  
Year to date cooling degree days 0 0  
Moisture  
Dew Point 14 °F    
Average Humidity 51    
Maximum Humidity 67    
Minimum Humidity 35    
Precipitation  
Precipitation T in 0.08 in 2.91 in (1984)
Month to date precipitation 0.23 1.15  
Year to date precipitation 2.29 3.59  
Sea Level Pressure  
Sea Level Pressure 29.70 in    
Wind  
Wind Speed 12 mph (West)    
Max Wind Speed 37 mph    
Max Gust Speed 50 mph    
Visibility 7 miles    
Events Fog , Snow    
T = Trace of Precipitation, MM = Missing Value Source: NWS Daily Summary

Daily Weather History Graph

Daily Weather History Graph

Search for Another Location

Airport or City:

Trip Planner

Search our weather history database for the weather conditions in past years. The results will help you decide how hot, cold, wet, or windy it might be!

Date:

Astronomy

Feb. 14, 2015 Rise Set
Actual Time 7:05 AM EST 5:47 PM EST
Civil Twilight 6:37 AM EST 6:14 PM EST
Nautical Twilight 6:06 AM EST 6:46 PM EST
Astronomical Twilight 5:35 AM EST 7:17 PM EST
Moon 3:05 AM EST (2/14) 1:20 PM EST (2/14)
Length of Visible Light 11h 37m
Length of Day
10h 41m
Waning Crescent, 24% of the Moon is Illuminated
Feb 14
Waning Crescent
Feb 18
New
Feb 25
First Quarter
Mar 5
Full
Mar 13
Last Quarter

Hourly Weather History & Observations

Time (EST) Temp. Windchill Dew Point Humidity Pressure Visibility Wind Dir Wind Speed Gust Speed Precip Events Conditions
12:53 AM 17.1 °F - 5.0 °F 59% 30.09 in 10.0 mi Calm Calm - N/A   Partly Cloudy
1:53 AM 18.0 °F 12.7 °F 7.0 °F 62% 30.06 in 10.0 mi NW 3.5 mph - N/A   Overcast
2:53 AM 16.0 °F 10.4 °F 7.0 °F 68% 30.03 in 9.0 mi SSE 3.5 mph - N/A   Overcast
3:53 AM 19.0 °F 13.9 °F 8.1 °F 62% 29.99 in 10.0 mi SSW 3.5 mph - N/A   Overcast
4:53 AM 19.9 °F 13.4 °F 6.1 °F 55% 29.95 in 10.0 mi SSW 4.6 mph - N/A   Overcast
5:53 AM 19.9 °F 14.9 °F 7.0 °F 57% 29.92 in 10.0 mi SSW 3.5 mph - N/A   Overcast
6:53 AM 21.0 °F 16.2 °F 8.1 °F 57% 29.90 in 10.0 mi South 3.5 mph - N/A   Overcast
7:53 AM 21.9 °F 15.7 °F 9.0 °F 58% 29.87 in 10.0 mi South 4.6 mph - N/A   Overcast
8:53 AM 24.1 °F 16.0 °F 9.0 °F 53% 29.83 in 10.0 mi South 6.9 mph - N/A   Overcast
9:53 AM 28.0 °F 20.8 °F 10.0 °F 47% 29.78 in 10.0 mi South 6.9 mph - N/A   Overcast
10:53 AM 33.1 °F 26.9 °F 10.0 °F 38% 29.74 in 10.0 mi South 6.9 mph - N/A   Overcast
11:53 AM 35.1 °F 27.4 °F 10.0 °F 35% 29.66 in 10.0 mi South 10.4 mph - N/A   Overcast
12:53 PM 36.0 °F 30.3 °F 12.0 °F 37% 29.60 in 10.0 mi SSW 6.9 mph - N/A   Overcast
1:53 PM 36.0 °F 26.0 °F 18.0 °F 48% 29.59 in 6.0 mi WSW 17.3 mph - 0.00 in Snow Light Snow
2:53 PM 37.9 °F 32.7 °F 17.1 °F 43% 29.52 in 10.0 mi Variable 6.9 mph - 0.00 in   Overcast
3:53 PM 37.9 °F 34.4 °F 16.0 °F 41% 29.50 in 10.0 mi SSE 4.6 mph - N/A   Overcast
4:53 PM 37.0 °F - 15.1 °F 41% 29.47 in 10.0 mi North - - N/A   Overcast
5:12 PM 35.1 °F 23.8 °F 24.1 °F 64% 29.46 in 2.0 mi West 20.7 mph 31.1 mph 0.00 in Snow Light Snow
5:19 PM 34.0 °F 22.4 °F 26.1 °F 73% 29.46 in 0.8 mi WNW 20.7 mph 28.8 mph 0.00 in Snow Light Snow
5:31 PM 33.1 °F 23.0 °F 28.0 °F 82% 29.47 in 1.0 mi WNW 15.0 mph - 0.00 in Snow Light Snow
5:36 PM 33.1 °F 23.4 °F 27.0 °F 78% 29.47 in 3.0 mi WNW 13.8 mph - 0.00 in Snow Light Snow
5:46 PM 34.0 °F 24.2 °F 27.0 °F 75% 29.48 in 3.0 mi WNW 15.0 mph - 0.00 in Snow Light Snow
5:50 PM 33.8 °F 23.2 °F 26.6 °F 75% 29.49 in 0.8 mi WNW 17.3 mph 24.2 mph 0.00 in Snow Light Snow
5:53 PM 33.1 °F 22.6 °F 28.0 °F 82% 29.52 in 0.5 mi WNW 16.1 mph 24.2 mph 0.00 in Snow Snow
5:57 PM 32.0 °F 19.5 °F 27.0 °F 82% 29.51 in 0.2 mi WNW 21.9 mph 35.7 mph 0.00 in Snow Heavy Snow
6:05 PM 30.0 °F 17.9 °F 26.1 °F 85% 29.50 in 0.2 mi West 18.4 mph 32.2 mph 0.00 in Fog , Snow Light Snow
6:10 PM 30.9 °F 19.4 °F 24.1 °F 76% 29.51 in 1.0 mi WNW 17.3 mph 27.6 mph 0.00 in Snow Light Snow
6:12 PM 30.9 °F 18.7 °F 24.1 °F 76% 29.51 in 3.0 mi WNW 19.6 mph 27.6 mph 0.00 in Snow Light Snow
6:25 PM 32.0 °F 18.1 °F 21.0 °F 64% 29.54 in 8.0 mi NW 27.6 mph 36.8 mph 0.00 in Snow Light Snow
6:53 PM 28.9 °F 13.7 °F 15.1 °F 56% 29.60 in 6.0 mi WNW 28.8 mph 38.0 mph 0.00 in   Haze
7:53 PM 24.1 °F 7.7 °F 8.1 °F 51% 29.73 in 10.0 mi NW 26.5 mph 38.0 mph 0.00 in   Clear
8:04 PM 21.0 °F 3.0 °F 7.0 °F 55% 29.73 in 2.5 mi NW 28.8 mph 42.6 mph 0.00 in   Partly Cloudy
8:17 PM 21.0 °F 3.6 °F 5.0 °F 50% 29.75 in 10.0 mi NW 26.5 mph 35.7 mph 0.00 in   Partly Cloudy
8:53 PM 17.1 °F -3.8 °F -0.0 °F 47% 29.82 in 6.0 mi NW 34.5 mph 49.5 mph 0.00 in   Haze
9:53 PM 15.1 °F -2.5 °F -4.0 °F 43% 29.86 in 9.0 mi NW 20.7 mph 47.2 mph N/A   Clear
10:53 PM 12.9 °F -6.1 °F -8.0 °F 39% 29.89 in 10.0 mi NW 23.0 mph 41.4 mph N/A   Clear
11:53 PM 12.0 °F -8.1 °F -7.1 °F 42% 29.92 in 10.0 mi NW 25.3 mph 35.7 mph N/A   Mostly Cloudy